Driggs, ID

12:07 PM MDT on April 26, 2017 (GMT -0600)
Driggs

Weather History for KDIJ - February, 2013

Change the Weather History Date:

Monday, February 25, 2013

  Actual Average (KJAC) Record (KJAC)
Temperature  
Mean Temperature 12 °F -  
Max Temperature 25 °F 33 °F 51 °F (1981)
Min Temperature -1 °F 6 °F -23 °F (2003)
Degree Days  
Heating Degree Days 53    
Moisture  
Dew Point 12 °F    
Average Humidity 78    
Maximum Humidity 93    
Minimum Humidity 58    
Precipitation  
Precipitation 0.00 in - - ()
Sea Level Pressure  
Sea Level Pressure 30.08 in    
Wind  
Wind Speed 7 mph (South)    
Max Wind Speed 13 mph    
Max Gust Speed 20 mph    
Visibility 7 miles    
Events Snow    
Averages and records for this station are not official NWS values.
T = Trace of Precipitation, MM = Missing Value Source: NWS Daily Summary

Daily Weather History Graph

Daily Weather History Graph

Search for Another Location

Airport or City:

Trip Planner

Search our weather history database for the weather conditions in past years. The results will help you decide how hot, cold, wet, or windy it might be!

Date:

Astronomy

Feb. 25, 2013 Rise Set
Actual Time 7:07 AM MST 6:08 PM MST
Civil Twilight 6:38 AM MST 6:37 PM MST
Nautical Twilight 6:04 AM MST 7:10 PM MST
Astronomical Twilight 5:31 AM MST 7:43 PM MST
Moon 6:27 PM MST (2/25) 6:38 AM MST (2/25)
Length of Visible Light 11h 59m
Length of Day
11h 01m
Full, 100% of the Moon is Illuminated
Feb 25
Full
Feb 25
Full
Mar 4
Last Quarter
Mar 11
New
Mar 19
First Quarter

Hourly Weather History & Observations

Time (MST) Temp. Windchill Dew Point Humidity Pressure Visibility Wind Dir Wind Speed Gust Speed Precip Events Conditions
12:56 AM 2.1 °F -11.6 °F -2.9 °F 79% 30.34 in 10.0 mi ESE 8.1 mph - N/A   Clear
1:56 AM -1.8 °F -17.5 °F -6.9 °F 79% 30.33 in 10.0 mi East 9.2 mph - N/A   Clear
2:49 AM 10.4 °F 0.8 °F 3.2 °F 73% 30.15 in 10.0 mi South 5.8 mph - N/A   Mostly Cloudy
2:56 AM 9.1 °F 2.6 °F 3.0 °F 76% 30.28 in 10.0 mi WSW 3.5 mph - N/A   Mostly Cloudy
3:56 AM 16.2 °F 6.5 °F 9.1 °F 74% 30.25 in 10.0 mi SSW 6.9 mph - N/A   Overcast
4:56 AM 18.1 °F 6.3 °F 11.1 °F 74% 30.27 in 10.0 mi SSE 10.4 mph - N/A   Overcast
5:56 AM 18.1 °F 7.9 °F 11.1 °F 74% 30.30 in 10.0 mi SSE 8.1 mph - N/A   Overcast
6:56 AM 18.1 °F 8.9 °F 11.1 °F 74% 30.28 in 10.0 mi SSE 6.9 mph - N/A   Overcast
7:56 AM 17.1 °F 7.6 °F 10.0 °F 74% 30.27 in 10.0 mi SSE 6.9 mph - N/A   Overcast
8:56 AM 18.1 °F 8.9 °F 9.1 °F 68% 30.25 in 10.0 mi SSE 6.9 mph - N/A   Scattered Clouds
9:56 AM 19.0 °F 10.0 °F 10.0 °F 68% 30.26 in 10.0 mi South 6.9 mph - N/A   Mostly Cloudy
10:56 AM 22.1 °F 13.7 °F 12.0 °F 65% 30.22 in 10.0 mi South 6.9 mph - N/A   Overcast
11:10 AM 21.2 °F 14.9 °F 12.2 °F 68% 30.05 in 10.0 mi South 4.6 mph - N/A   Overcast
11:40 AM 23.0 °F 15.8 °F 12.2 °F 63% 30.03 in 10.0 mi South 5.8 mph - N/A   Overcast
11:56 AM 24.1 °F 16.0 °F 13.1 °F 63% 30.17 in 10.0 mi SSE 6.9 mph - N/A   Overcast
12:05 PM 24.8 °F 19.1 °F 12.2 °F 59% 30.02 in 10.0 mi South 4.6 mph - N/A   Mostly Cloudy
12:56 PM 24.1 °F 13.7 °F 13.1 °F 63% 30.13 in 10.0 mi South 10.4 mph - N/A   Overcast
1:56 PM 25.2 °F 17.3 °F 13.1 °F 60% 30.11 in 10.0 mi SSW 6.9 mph - N/A   Overcast
2:56 PM 25.2 °F 13.9 °F 12.0 °F 58% 30.04 in 10.0 mi SW 12.7 mph 19.6 mph N/A   Overcast
3:56 PM 23.0 °F 15.8 °F 16.2 °F 75% 30.01 in 10.0 mi NW 5.8 mph - 0.00 in   Overcast
4:56 PM 22.1 °F 10.6 °F 13.1 °F 68% 30.01 in 10.0 mi SW 11.5 mph - 0.00 in   Overcast
5:56 PM 21.0 °F 8.6 °F 14.0 °F 74% 30.01 in 10.0 mi SSW 12.7 mph - N/A   Overcast
6:56 PM 19.0 °F 9.0 °F 15.1 °F 85% 30.02 in 10.0 mi South 8.1 mph - N/A   Overcast
7:05 PM 19.4 °F 11.5 °F 15.8 °F 86% 29.93 in 10.0 mi South 5.8 mph - N/A   Overcast
7:33 PM 19.4 °F 11.5 °F 15.8 °F 86% 29.93 in 4.0 mi South 5.8 mph - 0.00 in Snow Light Snow
7:47 PM 19.4 °F 12.8 °F 15.8 °F 86% 29.94 in 7.0 mi SSE 4.6 mph - 0.00 in Snow Light Snow
7:56 PM 18.1 °F 12.9 °F 15.1 °F 88% 30.04 in 9.0 mi SE 3.5 mph - 0.00 in Snow Light Snow
8:16 PM 19.4 °F 14.3 °F 15.8 °F 86% 29.94 in 2.0 mi SE 3.5 mph - 0.00 in Snow Light Snow
8:30 PM 19.4 °F 14.3 °F 15.8 °F 86% 29.93 in 2.0 mi SSE 3.5 mph - 0.00 in Snow Light Snow
8:34 PM 19.4 °F 14.3 °F 15.8 °F 86% 29.93 in 1.5 mi SSE 3.5 mph - 0.00 in Snow Light Snow
8:46 PM 17.6 °F 12.3 °F 15.8 °F 93% 29.93 in 1.5 mi South 3.5 mph - 0.00 in Snow Light Snow
8:56 PM 19.0 °F 13.9 °F 16.2 °F 89% 30.02 in 1.2 mi South 3.5 mph - 0.00 in Snow Light Snow
9:02 PM 19.4 °F 14.3 °F 15.8 °F 86% 29.94 in 1.5 mi South 3.5 mph - 0.00 in Snow Light Snow
9:15 PM 19.4 °F - 15.8 °F 86% 29.93 in 2.5 mi Calm Calm - 0.00 in Snow Light Snow
9:44 PM 17.6 °F 10.7 °F 15.8 °F 93% 29.93 in 4.0 mi East 4.6 mph - 0.00 in Snow Light Snow
9:56 PM 18.1 °F 11.3 °F 16.2 °F 92% 30.02 in 4.0 mi SE 4.6 mph - 0.00 in Snow Light Snow
10:15 PM 17.6 °F 10.7 °F 15.8 °F 93% 29.94 in 2.0 mi SE 4.6 mph - 0.00 in Snow Light Snow
10:44 PM 17.6 °F 8.2 °F 15.8 °F 93% 29.93 in 3.0 mi SE 6.9 mph - 0.00 in Snow Light Snow
10:56 PM 19.0 °F 12.3 °F 16.2 °F 89% 30.01 in 6.0 mi SE 4.6 mph - 0.00 in Snow Light Snow
11:56 PM 18.1 °F 10.0 °F 16.2 °F 92% 30.01 in 4.0 mi SE 5.8 mph - 0.00 in Snow Light Snow